PLATFORM,ARGOS_ID,DATE (YYYY/MM/DD HH:MI:SS),LATITUDE (degree_north),LONGITUDE (degree_east),TEMP LEVEL0 (degree_Celsius),EWCT LEVEL0 (meter/second),NSCT LEVEL0 (meter/second),NSCT LEVEL1 (meter/second),EWCT LEVEL1 (meter/second),QC,SC40_GNRL_BattVolt,SC40_GNRL_Submergence
61292,24789,2005/06/01 21:10:00,42.9240,5.7740,-5,,,,,0014449999,0.47,128
61292,24789,2005/06/01 22:00:00,42.9300,5.7610,19.375,-0.482384,0.302965,0.22239,-0.352817,0014410000,10.53,95
61292,24789,2005/06/01 23:00:00,42.9320,5.7540,18.984,-0.216455,0.0841624,0.061775,-0.158305,0011110000,10.47,55
61292,24789,2005/06/02 00:00:00,42.9350,5.7490,18.711,-0.15461,0.126249,0.092662,-0.113071,0011110000,10.35,14
61292,24789,2005/06/02 01:00:00,42.9390,5.7440,18.594,-0.15461,0.168341,0.12355,-0.113064,0011110000,10.35,0
61292,24789,2005/06/02 02:00:00,42.9420,5.7400,18.164,-0.123688,0.126263,0.092662,-0.090446,0011110000,10.47,0
61292,24789,2005/06/02 03:00:00,42.9450,5.7370,18.672,-0.0927662,0.126269,0.092662,-0.067831,0011110000,10.47,0
61292,24789,2005/06/02 04:00:00,42.9490,5.7340,19.219,-0.0927662,0.168369,0.12355,-0.067827,0011110000,10.35,0
61292,24789,2005/06/02 05:00:00,42.9520,5.7330,19.492,-0.0309221,0.126284,0.092662,-0.022608,0011110000,10.47,0
61292,24789,2005/06/02 06:00:00,42.9550,5.7330,19.492,-2.74643e-14,0.12629,0.092662,0,0011110000,10.35,0
61292,24789,2005/06/02 07:00:00,42.9570,5.7330,20.039,-2.74643e-14,0.0841968,0.061775,0,0011110000,10.35,0
61292,24789,2005/06/02 08:00:00,42.9580,5.7320,20.82,-0.0309221,0.0420994,0.030887,-0.022605,0011110000,10.47,0
61292,24789,2005/06/02 09:00:00,42.9570,5.7300,20.977,-0.0618442,-0.0420994,-0.030887,-0.045211,0011110000,10.47,0
61292,24789,2005/06/02 10:00:00,42.9570,5.7280,21.641,-0.0618442,0,0,-0.045211,0011110000,10.35,0
61292,24789,2005/06/02 11:00:00,42.9580,5.7240,22.266,-0.123688,0.0420994,0.030887,-0.090421,0011110000,10.53,0
61292,24789,2005/06/02 12:00:00,42.9600,5.7200,21.445,-0.123688,0.0842009,0.061775,-0.090419,0011110000,10.53,0
61292,24789,2005/06/02 13:00:00,42.9610,5.7150,20.82,-0.15461,0.0421015,0.030887,-0.113021,0011110000,10.41,0
61292,24789,2005/06/02 14:00:00,42.9630,5.7100,21.211,-0.15461,0.0842051,0.061775,-0.113018,0011110000,10.53,0
61292,24789,2005/06/02 15:00:00,42.9650,5.7050,20.586,-0.15461,0.0842078,0.061775,-0.113015,0011110000,10.53,0
61292,24789,2005/06/02 16:00:00,42.9680,5.7020,20.977,-0.0927662,0.126317,0.092662,-0.067806,0011110000,10.53,0
61292,24789,2005/06/02 17:00:00,42.9710,5.6990,22.266,-0.0927662,0.126323,0.092662,-0.067803,0011110000,10.53,0
61292,24789,2005/06/02 18:00:00,42.9750,5.6970,22.695,-0.0618442,0.16844,0.12355,-0.045199,0011110000,10.53,0
61292,24789,2005/06/02 19:00:00,42.9780,5.6960,22.539,-0.0309221,0.126338,0.092662,-0.022598,0011110000,10.35,0
61292,24789,2005/06/02 20:00:00,42.9810,5.6940,22.227,-0.0618442,0.126344,0.092662,-0.045194,0011110000,10.53,0
61292,24789,2005/06/02 21:00:00,42.9850,5.6920,22.07,-0.0618442,0.168468,0.12355,-0.045192,0011110000,10.35,0
61292,24789,2005/06/02 23:00:00,42.9910,5.6910,21.875,-0.015461,0.126361,0.092662,-0.011297,0011110000,10.41,0
61292,24789,2005/06/03 00:00:00,42.9940,5.6900,21.758,-0.0309221,0.126371,0.092662,-0.022592,0011110000,10.41,0
61292,24789,2005/06/03 01:00:00,42.9960,5.6900,21.914,0,0.0842506,0.061775,0,0011110000,10.47,0
61292,24789,2005/06/03 02:00:00,42.9960,5.6890,21.992,-0.0309221,0,0,-0.022591,0011110000,10.47,0
61292,24789,2005/06/03 03:00:00,42.9960,5.6870,21.836,-0.0618442,0,0,-0.045182,0011110000,10.47,0
61292,24789,2005/06/03 04:00:00,42.9970,5.6830,21.758,-0.123688,0.0421263,0.030887,-0.090364,0011110000,10.47,0
61292,24789,2005/06/03 05:00:00,42.9980,5.6800,21.562,-0.0927662,0.042127,0.030887,-0.067772,0011110000,10.41,0
61292,24789,2005/06/03 06:00:00,43.0000,5.6770,21.445,-0.0927662,0.0842561,0.061775,-0.06777,0011110000,10.47,0
61292,24789,2005/06/03 07:00:00,43.0020,5.6740,21.406,-0.0927662,0.0842589,0.061775,-0.067768,0011110000,10.47,0
61292,24789,2005/06/03 08:00:00,43.0050,5.6700,21.523,-0.123688,0.126393,0.092662,-0.090354,0011110000,10.35,0
61292,24789,2005/06/03 09:00:00,43.0080,5.6670,21.484,-0.0927662,0.1264,0.092662,-0.067762,0011110000,10.41,0
61292,24789,2005/06/03 10:00:00,43.0110,5.6640,21.68,-0.0927662,0.126406,0.092662,-0.067759,0011110000,10.53,0
61292,24789,2005/06/03 11:00:00,43.0150,5.6610,21.719,-0.0927662,0.168551,0.12355,-0.067755,0011110000,10.53,0
61292,24789,2005/06/03 12:00:00,43.0190,5.6580,21.68,-0.0927662,0.168562,0.12355,-0.06775,0011110000,10.53,0
61292,24789,2005/06/03 13:00:00,43.0230,5.6560,21.758,-0.0618442,0.168573,0.12355,-0.045164,0011110000,10.41,0
61292,24789,2005/06/03 14:00:00,43.0270,5.6540,21.758,-0.0618442,0.168584,0.12355,-0.045161,0011110000,10.53,0
61292,24789,2005/06/03 15:00:00,43.0320,5.6530,21.523,-0.0309221,0.210746,0.154437,-0.022579,0011110000,10.53,0
61292,24789,2005/06/03 16:00:00,43.0370,5.6530,21.406,-2.74643e-14,0.210763,0.154437,0,0011110000,10.35,0
61292,24789,2005/06/03 17:00:00,43.0410,5.6530,21.328,-2.74643e-14,0.168623,0.12355,0,0011110000,10.47,0
61292,24789,2005/06/03 18:00:00,43.0450,5.6550,21.328,0.0618442,0.168634,0.12355,0.045148,0011110000,10.47,0
61292,24789,2005/06/03 19:00:00,43.0480,5.6570,21.133,0.0618442,0.126483,0.092662,0.045145,0011110000,10.35,0
61292,24789,2005/06/03 20:00:00,43.0510,5.6610,20.977,0.123688,0.126489,0.092662,0.090286,0011110000,10.41,0
61292,24789,2005/06/03 21:00:00,43.0540,5.6640,21.094,0.0927662,0.126495,0.092662,0.067711,0011110000,10.41,0
61292,24789,2005/06/03 22:00:00,43.0570,5.6680,20.977,0.123688,0.126501,0.092662,0.090277,0011110000,10.47,0
61292,24789,2005/06/03 23:00:00,43.0580,5.6720,21.055,0.123688,0.0421685,0.030887,0.090274,0011110000,10.35,0
61292,24789,2005/06/04 00:00:00,43.0580,5.6760,20.977,0.123688,0,0,0.090273,0011110000,10.41,0
61292,24789,2005/06/04 01:00:00,43.0580,5.6790,21.016,0.0927662,0,0,0.067705,0011110000,10.47,0
61292,24789,2005/06/04 02:00:00,43.0560,5.6810,21.016,0.0618442,-0.0843363,-0.061775,0.045137,0011110000,10.35,0
61292,24789,2005/06/04 03:00:00,43.0540,5.6810,21.094,0,-0.0843336,-0.061775,0,0011110000,10.41,0
61292,24789,2005/06/04 04:00:00,43.0510,5.6810,21.094,0,-0.126495,-0.092662,0,0011110000,10.47,0
61292,24789,2005/06/04 05:00:00,43.0490,5.6800,21.094,-0.0309221,-0.0843266,-0.061775,-0.022571,0011110000,10.47,0
61292,24789,2005/06/04 06:00:00,43.0480,5.6780,21.133,-0.0618442,-0.0421623,-0.030887,-0.045144,0011110000,10.47,0
61292,24789,2005/06/04 07:00:00,43.0460,5.6760,21.172,-0.0618442,-0.0843225,-0.061775,-0.045145,0011110000,10.35,0
61292,24789,2005/06/04 08:00:00,43.0460,5.6750,21.211,-0.0309221,0,0,-0.022573,0011110000,10.47,0
61292,24789,2005/06/04 09:01:00,43.0450,5.6740,21.289,-0.0304152,-0.0414691,-0.030381,-0.022203,0011110000,10.35,0
61292,24789,2005/06/04 10:00:00,43.0440,5.6740,21.289,0,-0.0428741,-0.031411,0,0011110000,10.47,1
61292,24789,2005/06/04 11:00:00,43.0430,5.6750,21.328,0.0309221,-0.0421588,-0.030887,0.022574,0011110000,10.47,6
61292,24789,2005/06/04 12:00:00,43.0420,5.6760,21.289,0.0309221,-0.0421581,-0.030887,0.022574,0011110000,10.47,44
61292,24789,2005/06/04 13:00:00,43.0410,5.6780,21.25,0.0618442,-0.0421574,-0.030887,0.045149,0011110000,10.47,84
61292,24789,2005/06/04 14:00:00,43.0400,5.6800,21.328,0.0618442,-0.0421567,-0.030887,0.04515,0011110000,10.35,125
61292,24789,2005/06/04 15:00:00,43.0380,5.6820,21.211,0.0618442,-0.0843114,-0.061775,0.045151,0011110000,10.47,165
61292,24789,2005/06/04 16:00:00,43.0360,5.6840,21.25,0.0618442,-0.0843086,-0.061775,0.045152,0011110000,10.47,205
61292,24789,2005/06/04 17:00:00,43.0340,5.6860,21.211,0.0618442,-0.0843059,-0.061775,0.045154,0011110000,10.47,246
61292,24789,2005/06/04 18:00:00,43.0310,5.6880,21.172,0.0618442,-0.126454,-0.092662,0.045155,0011110000,10.47,255
61292,24789,2005/06/04 19:01:00,43.0290,5.6890,21.016,0.0304152,-0.082917,-0.060762,0.022208,0011110000,10.47,255
61292,24789,2005/06/04 20:00:00,43.0260,5.6910,20.898,0.0628924,-0.128586,-0.094233,0.045925,0011110000,10.47,255
61292,24789,2005/06/04 21:00:00,43.0230,5.6920,20.82,0.0309221,-0.126437,-0.092662,0.022581,0011110000,10.47,255
61292,24789,2005/06/04 22:01:00,43.0200,5.6910,20.781,-0.0304152,-0.124358,-0.091143,-0.022212,0011110000,10.35,255
61292,24789,2005/06/04 23:00:00,43.0170,5.6900,20.742,-0.0314462,-0.128567,-0.094233,-0.022966,0011110000,10.47,255
61292,24789,2005/06/05 00:00:00,43.0130,5.6880,20.664,-0.0618442,-0.168556,-0.12355,-0.045168,0011110000,10.47,255
61292,24789,2005/06/05 01:00:00,43.0110,5.6860,20.664,-0.0618442,-0.0842741,-0.061775,-0.045171,0011110000,10.47,255
61292,24789,2005/06/05 02:01:00,43.0090,5.6830,20.469,-0.0912455,-0.0828898,-0.060762,-0.066647,0011110000,10.35,255
61292,24789,2005/06/05 03:00:00,43.0070,5.6800,20.273,-0.0943386,-0.0856968,-0.062822,-0.068909,0011110000,10.47,255
61292,24789,2005/06/05 04:01:00,43.0050,5.6780,20.117,-0.0608303,-0.0828844,-0.060762,-0.044434,0011110000,10.35,250
61292,24789,2005/06/05 05:00:00,43.0030,5.6770,19.688,-0.0314462,-0.0856912,-0.062822,-0.022971,0011110000,10.47,255
61292,24789,2005/06/05 06:01:00,43.0020,5.6750,19.453,-0.0608303,-0.0414398,-0.030381,-0.044437,0011110000,10.35,255
61292,24789,2005/06/05 07:00:00,43.0010,5.6730,19.375,-0.0628924,-0.0428438,-0.031411,-0.045944,0011110000,10.47,255
61292,24789,2005/06/05 08:01:00,43.0010,5.6710,19.18,-0.0608303,0,0,-0.044438,0011110000,10.47,255
61292,24789,2005/06/05 09:00:00,43.0010,5.6700,19.102,-0.0314462,0,0,-0.022972,0011110000,10.47,255
61292,24789,2005/06/05 10:00:00,43.0020,5.6700,19.023,0,0.0421298,0.030887,0,0011110000,10.35,255
61292,24789,2005/06/05 11:01:00,43.0010,5.6710,19.023,0.0304152,-0.0414391,-0.030381,0.022219,0011110000,10.47,255
61292,24789,2005/06/05 12:00:00,43.0000,5.6720,18.984,0.0314462,-0.0428431,-0.031411,0.022972,0011110000,10.47,255
61292,24789,2005/06/05 13:01:00,42.9980,5.6740,18.828,0.0608303,-0.0828749,-0.060762,0.044439,0011110000,10.29,255
61292,24789,2005/06/05 14:00:00,42.9960,5.6750,18.789,0.0314462,-0.0856814,-0.062822,0.022974,0011110000,10.47,255
61292,24789,2005/06/05 15:00:00,42.9950,5.6760,18.867,0.0309221,-0.0421256,-0.030887,0.022591,0011110000,10.47,255
61292,24789,2005/06/05 16:00:00,42.9930,5.6770,18.789,0.0309221,-0.0842492,-0.061775,0.022592,0011110000,10.47,255
61292,24789,2005/06/05 17:00:00,42.9920,5.6790,18.633,0.0618442,-0.0421236,-0.030887,0.045185,0011110000,10.35,255
61292,24789,2005/06/05 18:00:00,42.9900,5.6810,18.438,0.0618442,-0.0842451,-0.061775,0.045186,0011110000,10.35,255
61292,24789,2005/06/05 20:00:00,42.9870,5.6850,18.281,0.0618442,-0.0631812,-0.046331,0.045188,0011110000,10.47,255
61292,24789,2005/06/05 21:01:00,42.9840,5.6860,18.203,0.0304152,-0.124285,-0.091143,0.022225,0011110000,10.35,255
61292,24789,2005/06/06 00:00:00,42.9790,5.6880,18.281,0.0207299,-0.0705854,-0.051767,0.015148,0011110000,10.47,255
61292,24789,2005/06/06 01:00:00,42.9770,5.6890,18.32,0.0309221,-0.0842271,-0.061775,0.022598,0011110000,10.47,255
61292,24789,2005/06/06 02:01:00,42.9740,5.6900,18.008,0.0304152,-0.124264,-0.091143,0.022228,0011110000,10.35,255
61292,24789,2005/06/06 03:00:00,42.9720,5.6910,17.734,0.0314462,-0.0856477,-0.062822,0.022983,0011110000,10.47,255
61292,24789,2005/06/06 04:01:00,42.9690,5.6910,17.266,0,-0.124254,-0.091143,0,0011110000,10.35,255
61292,24789,2005/06/06 05:00:00,42.9650,5.6890,16.992,-0.0628924,-0.171279,-0.125644,-0.04597,0011110000,10.47,255
61292,24789,2005/06/06 06:01:00,42.9620,5.6860,16.875,-0.0912455,-0.12424,-0.091143,-0.066698,0011110000,10.29,255
61292,24789,2005/06/06 07:01:00,42.9590,5.6810,16.68,-0.15461,-0.126304,-0.092662,-0.113021,0011110000,10.35,255
61292,24789,2005/06/06 08:00:00,42.9570,5.6750,16.523,-0.188677,-0.0856267,-0.062822,-0.137929,0011110000,10.41,255
61292,24789,2005/06/06 09:00:00,42.9550,5.6680,16.602,-0.216455,-0.0841968,-0.061775,-0.158241,0011110000,10.41,255
61292,24789,2005/06/06 10:01:00,42.9540,5.6600,16.68,-0.243321,-0.0414072,-0.030381,-0.177886,0011110000,10.47,255
61292,24789,2005/06/06 11:00:00,42.9530,5.6530,16.797,-0.220123,-0.0428102,-0.031411,-0.160929,0011110000,10.47,255
61292,24789,2005/06/06 12:01:00,42.9530,5.6470,16.992,-0.182491,0,0,-0.133418,0011110000,10.29,255
61292,24789,2005/06/06 13:00:00,42.9520,5.6410,16.914,-0.188677,-0.0428095,-0.031411,-0.137942,0011110000,10.29,255
61292,24789,2005/06/06 14:00:00,42.9520,5.6360,16.914,-0.15461,0,0,-0.113037,0011110000,10.35,255
61292,24789,2005/06/06 15:00:00,42.9520,5.6300,16.836,-0.185532,0,0,-0.135644,0011110000,10.47,255
61292,24789,2005/06/06 16:01:00,42.9510,5.6250,16.836,-0.152076,-0.0414052,-0.030381,-0.111184,0011110000,10.29,255
61292,24789,2005/06/06 17:00:00,42.9510,5.6190,16.719,-0.188677,0,0,-0.137945,0011110000,10.47,255
61292,24789,2005/06/06 18:00:00,42.9500,5.6130,16.602,-0.185532,-0.0420946,-0.030887,-0.135647,0011110000,10.35,255
61292,24789,2005/06/06 21:00:00,42.9470,5.5900,16.289,-0.237069,-0.0420932,-0.030887,-0.173333,0011110000,10.47,255
61292,24789,2005/06/06 23:00:00,42.9460,5.5720,16.406,-0.278299,-0.0210459,-0.015444,-0.203484,0011110000,10.35,255
61292,24789,2005/06/07 00:00:00,42.9440,5.5600,16.406,-0.371065,-0.0841816,-0.061775,-0.271319,0011110000,10.35,255
61292,24789,2005/06/07 01:00:00,42.9420,5.5470,16.406,-0.401987,-0.0841789,-0.061775,-0.293938,0011110000,10.41,255
61292,24789,2005/06/07 02:00:00,42.9420,5.5330,16.406,-0.432909,0,0,-0.316554,0011110000,10.47,255
61292,24789,2005/06/07 03:00:00,42.9420,5.5190,16.328,-0.432909,0,0,-0.316554,0011110000,10.41,255
61292,24789,2005/06/07 04:01:00,42.9440,5.5040,16.367,-0.456227,0.0827989,0.060762,-0.333599,0011110000,10.29,255
61292,24789,2005/06/07 06:01:00,42.9500,5.4750,16.562,-0.44837,0.126277,0.092662,-0.327833,0011110000,10.29,255
61292,24789,2005/06/07 07:01:00,42.9530,5.4610,16.523,-0.432909,0.126286,0.092662,-0.316505,0011110000,10.35,255
61292,24789,2005/06/07 08:01:00,42.9560,5.4480,16.484,-0.401987,0.126292,0.092662,-0.293883,0011110000,10.47,255
61292,24789,2005/06/07 09:00:00,42.9600,5.4360,16.602,-0.377354,0.171253,0.125644,-0.275859,0011110000,10.47,255
61292,24789,2005/06/07 10:00:00,42.9630,5.4240,16.602,-0.371065,0.126307,0.092662,-0.271246,0011110000,10.47,255
61292,24789,2005/06/07 11:00:00,42.9660,5.4110,16.797,-0.401987,0.126313,0.092662,-0.293835,0011110000,10.29,255
61292,24789,2005/06/07 12:01:00,42.9690,5.4000,16.992,-0.334567,0.124248,0.091143,-0.244542,0011110000,10.47,255
61292,24789,2005/06/07 13:00:00,42.9730,5.3900,17.305,-0.314462,0.17129,0.125644,-0.229834,0011110000,10.47,255
61292,24789,2005/06/07 14:00:00,42.9760,5.3810,17.148,-0.278299,0.126333,0.092662,-0.203391,0011110000,10.47,255
61292,24789,2005/06/07 15:01:00,42.9780,5.3710,17.695,-0.304152,0.082845,0.060762,-0.222277,0011110000,10.35,255
61292,24789,2005/06/07 16:01:00,42.9800,5.3610,18.008,-0.309221,0.0842285,0.061775,-0.225974,0011110000,10.47,255
61292,24789,2005/06/07 17:00:00,42.9810,5.3510,17.695,-0.314462,0.0428291,0.031411,-0.229798,0011110000,10.47,255
61292,24789,2005/06/07 18:00:00,42.9850,5.3380,17.539,-0.401987,0.168468,0.12355,-0.293747,0011110000,10.47,255
61292,24789,2005/06/07 19:01:00,42.9860,5.3280,17.734,-0.304152,0.0414283,0.030381,-0.222246,0011110000,10.29,255
61292,24789,2005/06/07 20:02:00,42.9890,5.3180,18.086,-0.304152,0.124289,0.091143,-0.222239,0011110000,10.29,255
61292,24789,2005/06/07 21:00:00,42.9910,5.3070,18.047,-0.351872,0.0871486,0.063905,-0.257097,0011110000,10.47,255
61292,24789,2005/06/08 00:00:00,43.0060,5.2810,17.5,-0.267991,0.210639,0.154437,-0.195782,0011110000,10.35,255
61292,24789,2005/06/08 01:01:00,43.0110,5.2750,17.578,-0.182491,0.207219,0.151906,-0.133298,0011110000,10.29,255
61292,24789,2005/06/08 02:00:00,43.0150,5.2690,17.461,-0.188677,0.171408,0.125644,-0.137806,0011110000,10.47,255
61292,24789,2005/06/08 03:00:00,43.0190,5.2640,17.188,-0.15461,0.168562,0.12355,-0.112917,0011110000,10.35,255
61292,24789,2005/06/08 04:01:00,43.0230,5.2600,17.031,-0.121661,0.16581,0.121525,-0.088847,0011110000,10.35,255
61292,24789,2005/06/08 05:00:00,43.0270,5.2580,16.992,-0.0628924,0.171441,0.125644,-0.045926,0011110000,10.47,255
61292,24789,2005/06/08 06:00:00,43.0320,5.2560,17.109,-0.0618442,0.210746,0.154437,-0.045158,0011110000,10.35,255
61292,24789,2005/06/08 07:00:00,43.0370,5.2550,17.266,-0.0309221,0.210763,0.154437,-0.022577,0011110000,10.47,255
61292,24789,2005/06/08 08:00:00,43.0410,5.2540,17.227,-0.0309221,0.168623,0.12355,-0.022575,0011110000,10.47,255
61292,24789,2005/06/08 09:00:00,43.0460,5.2540,17.266,-2.74643e-14,0.210794,0.154437,0,0011110000,10.47,255
61292,24789,2005/06/08 10:00:00,43.0500,5.2550,17.305,0.0309221,0.168648,0.12355,0.022572,0011110000,10.47,255
61292,24789,2005/06/08 11:00:00,43.0540,5.2570,17.266,0.0618442,0.168659,0.12355,0.045141,0011110000,10.47,255
61292,24789,2005/06/08 12:00:00,43.0560,5.2590,17.383,0.0618442,0.0843336,0.061775,0.045139,0011110000,10.47,255
61292,24789,2005/06/08 13:00:00,43.0570,5.2610,17.5,0.0618442,0.0421678,0.030887,0.045138,0011110000,10.35,255
61292,24789,2005/06/08 14:00:00,43.0580,5.2630,17.617,0.0618442,0.0421685,0.030887,0.045137,0011110000,10.35,255
61292,24789,2005/06/08 15:00:00,43.0570,5.2660,17.656,0.0927662,-0.0421685,-0.030887,0.067706,0011110000,10.47,255
61292,24789,2005/06/08 16:00:00,43.0580,5.2680,18.047,0.0618442,0.0421685,0.030887,0.045137,0011110000,10.47,255
61292,24789,2005/06/08 17:00:00,43.0580,5.2710,18.086,0.0773052,0.0210843,0,0.067705,0011110000,10.47,248
61292,24789,2005/06/08 18:00:00,43.0570,5.2730,18.047,0.0618442,-0.0421685,-0.030887,0.045137,0011110000,10.47,255
61292,24789,2005/06/08 19:00:00,43.0560,5.2770,17.812,0.123688,-0.0421678,-0.030887,0.090276,0011110000,10.35,239
61292,24789,2005/06/08 20:00:00,43.0560,5.2810,17.93,0.123688,0,0,0.090276,0011110000,10.47,209
61292,24789,2005/06/08 21:01:00,43.0540,5.2850,17.812,0.121661,-0.082951,-0.060762,0.088798,0011110000,10.35,170
61292,24789,2005/06/08 22:00:00,43.0530,5.2870,17.578,0.0628924,-0.0428804,-0.031411,0.045905,0011110000,10.47,139
61292,24789,2005/06/08 23:00:00,43.0510,5.2890,17.305,0.0623639,-0.0637791,-0.061775,0.045141,0011110000,10.47,113
61292,24789,2005/06/09 00:00:00,43.0500,5.2890,17.188,-2.74643e-14,-0.0421637,-0.030887,0,0011110000,10.47,104
61292,24789,2005/06/09 01:00:00,43.0520,5.2910,17.188,0.0618442,0.084328,0.061775,0.045142,0011110000,10.47,70
61292,24789,2005/06/09 02:00:00,43.0520,5.2930,17.266,0.0618442,0,0,0.045141,0011110000,10.47,58
61292,24789,2005/06/09 03:00:00,43.0510,5.2950,17.305,0.0618442,-0.0421644,-0.030887,0.045141,0011110000,10.35,99
61292,24789,2005/06/09 04:01:00,43.0510,5.2980,17.344,0.0912455,0,0,0.066603,0011110000,10.47,139
61292,24789,2005/06/09 05:00:00,43.0520,5.3010,17.188,0.0943386,0.042879,0.031411,0.06886,0011110000,10.47,179
61292,24789,2005/06/09 06:00:00,43.0520,5.3060,17.109,0.15461,0,0,0.112853,0011110000,10.47,220
61292,24789,2005/06/09 07:00:00,43.0530,5.3120,16.836,0.185532,0.042165,0.030887,0.135422,0011110000,10.47,218
61292,24789,2005/06/09 08:00:00,43.0510,5.3210,16.914,0.278299,-0.0843294,-0.061775,0.203135,0011110000,10.29,255
61292,24789,2005/06/09 09:00:00,43.0480,5.3290,17.266,0.247377,-0.126489,-0.092662,0.180572,0011110000,10.47,255
61292,24789,2005/06/09 10:00:00,43.0420,5.3340,17.5,0.15461,-0.252959,-0.185325,0.112866,0011110000,10.47,255
61292,24789,2005/06/09 11:00:00,43.0360,5.3370,17.734,0.0927662,-0.252934,-0.185325,0.067726,0011110000,10.47,217
61292,24789,2005/06/09 12:00:00,43.0310,5.3370,17.734,-2.74643e-14,-0.210759,-0.154437,0,0011110000,10.47,205
61292,24789,2005/06/09 13:00:00,43.0290,5.3360,18.047,-0.0309221,-0.084299,-0.061775,-0.022579,0011110000,10.35,218
61292,24789,2005/06/09 14:00:00,43.0270,5.3350,18.125,-0.0309221,-0.0842962,-0.061775,-0.022579,0011110000,10.47,194
61292,24789,2005/06/09 15:00:00,43.0250,5.3320,18.203,-0.0927662,-0.0842934,-0.061775,-0.06774,0011110000,10.47,156
61292,24789,2005/06/09 16:00:00,43.0220,5.3290,18.203,-0.0927662,-0.126435,-0.092662,-0.067743,0011110000,10.47,128
61292,24789,2005/06/09 17:00:00,43.0200,5.3240,18.164,-0.15461,-0.0842865,-0.061775,-0.11291,0011110000,10.47,116
61292,24789,2005/06/09 18:00:00,43.0200,5.3230,18.125,-0.0309221,0,0,-0.022582,0011110000,10.35,91
61292,24789,2005/06/09 19:00:00,43.0200,5.3230,17.852,0,0,0,0,0011110000,10.47,99
61292,24789,2005/06/09 20:00:00,43.0180,5.3250,17.617,0.0618442,-0.0842837,-0.061775,0.045165,0011110000,10.47,139
61292,24789,2005/06/09 21:00:00,43.0160,5.3260,18.125,0.0309221,-0.084281,-0.061775,0.022583,0011110000,10.47,179
61292,24789,2005/06/09 22:00:00,43.0130,5.3260,18.906,-2.74643e-14,-0.126416,-0.092662,0,0011110000,10.47,219
61292,24789,2005/06/09 23:00:00,43.0090,5.3250,19.453,-0.0309221,-0.168545,-0.12355,-0.022586,0011110000,10.47,255
61292,24789,2005/06/10 00:00:00,43.0050,5.3230,19.531,-0.0618442,-0.168534,-0.12355,-0.045174,0011110000,10.47,255
61292,24789,2005/06/10 01:00:00,43.0000,5.3200,19.727,-0.0927662,-0.210652,-0.154437,-0.067766,0011110000,10.41,255
61292,24789,2005/06/10 02:00:00,42.9950,5.3170,19.883,-0.0927662,-0.210635,-0.154437,-0.067772,0011110000,10.47,231
61292,24789,2005/06/10 03:00:00,42.9900,5.3110,19.961,-0.185532,-0.210618,-0.154437,-0.135555,0011110000,10.47,191
61292,24789,2005/06/10 04:01:00,42.9860,5.3040,19.961,-0.212906,-0.16572,-0.121525,-0.155566,0011110000,10.35,152
61292,24789,2005/06/10 05:00:00,42.9810,5.2960,19.883,-0.251569,-0.214156,-0.157055,-0.18383,0011110000,10.47,128
61292,24789,2005/06/10 06:00:00,42.9760,5.2880,19.883,-0.247377,-0.21057,-0.154437,-0.180781,0011110000,10.47,114
61292,24789,2005/06/10 07:00:00,42.9710,5.2790,20,-0.278299,-0.210552,-0.154437,-0.203395,0011110000,10.47,97
61292,24789,2005/06/10 08:00:00,42.9660,5.2670,20.195,-0.371065,-0.210535,-0.154437,-0.271215,0011110000,10.41,56
61292,24789,2005/06/10 09:00:00,42.9620,5.2540,20.82,-0.401987,-0.168416,-0.12355,-0.293838,0011110000,10.53,16
61292,24789,2005/06/10 10:00:00,42.9600,5.2410,21.523,-0.401987,-0.0842037,-0.061775,-0.293852,0011110000,10.53,0
61292,24789,2005/06/10 11:01:00,42.9580,5.2290,21.68,-0.364982,-0.0828206,-0.060762,-0.26681,0011110000,10.35,0
61292,24789,2005/06/10 12:00:00,42.9570,5.2180,21.016,-0.345908,-0.042813,-0.031411,-0.252873,0011110000,10.41,0
61292,24789,2005/06/10 13:00:00,42.9560,5.2060,21.094,-0.371065,-0.0420987,-0.030887,-0.271268,0011110000,10.53,0
61292,24789,2005/06/10 14:00:00,42.9550,5.1940,20.664,-0.371065,-0.042098,-0.030887,-0.271272,0011110000,10.53,0
61292,24789,2005/06/10 15:00:00,42.9560,5.1830,20.547,-0.340143,0.042098,0.030887,-0.248666,0011110000,10.53,0
61292,24789,2005/06/10 16:00:00,42.9570,5.1730,20.586,-0.309221,0.0420987,0.030887,-0.226057,0011110000,10.53,32
61292,24789,2005/06/10 17:00:00,42.9580,5.1640,20.43,-0.278299,0.0420994,0.030887,-0.203448,0011110000,10.53,72
61292,24789,2005/06/10 18:01:00,42.9580,5.1550,20.352,-0.273736,0,0,-0.200111,0011110000,10.47,113
61292,24789,2005/06/10 19:00:00,42.9590,5.1470,20.156,-0.251569,0.0428137,0.031411,-0.183904,0011110000,10.47,153
61292,24789,2005/06/10 20:01:00,42.9580,5.1390,19.844,-0.243321,-0.0414099,-0.030381,-0.177875,0011110000,10.35,194
61292,24789,2005/06/10 21:00:00,42.9570,5.1290,19.766,-0.314462,-0.042813,-0.031411,-0.229884,0011110000,10.35,234
61292,24789,2005/06/10 23:00:00,42.9540,5.1090,20,-0.309221,-0.0631471,-0.046331,-0.22606,0011110000,10.47,255
61292,24789,2005/06/11 00:00:00,42.9540,5.0970,19.922,-0.371065,0,0,-0.271279,0011110000,10.35,255
61292,24789,2005/06/11 01:00:00,42.9510,5.0830,19.922,-0.432909,-0.126288,-0.092662,-0.3165,0011110000,10.47,254
61292,24789,2005/06/11 02:01:00,42.9520,5.0690,19.688,-0.425812,0.0414052,0.030381,-0.311316,0011110000,10.41,235
61292,24789,2005/06/11 03:00:00,42.9520,5.0540,19.766,-0.471693,0,0,-0.344857,0011110000,10.47,195
61292,24789,2005/06/11 05:00:00,42.9560,5.0260,19.648,-0.432909,0.084194,0.061775,-0.316492,0011110000,10.53,156
61292,24789,2005/06/11 06:00:00,42.9590,5.0140,19.648,-0.371065,0.126298,0.092662,-0.271264,0011110000,10.53,116